Zurück zum Katalog

STARLINK-33531

AktivKommunikationVLEO
NORAD 63399·PAYLOAD·🇺🇸 United States

Gestartet Mar 31, 2025 von Cape Canaveral Space Force Station

Loading…

Nächste Überflüge (nächste 24 Stunden)

TLE

AktuellSource: CelesTrak SupGP

Epoche: Sep 15, 2026, 03:52 UTC

1 63399C 25065A   26258.16159722  .00030543  00000+0  11061-2 0  2587
2 63399  43.0025 116.9708 0001453 273.2643 248.1473 15.27568634    15

Verfolge STARLINK-33531 in Echtzeit mit AllMySat

Download on the App Store